Погода в Мече

Россия / Пермский край     57°15′53″N   57°30′04″E
темп.,
°C
ветер,
м/с
пор.,
м/с
влажн.,
%
обл.,
%
осадки,
мм/ч
давл.,
гПа
погр.,
м
8 августа, пн
пн823:00+19ссв227199 0.0 101911
02:00+18ссз11796 0.0 101911
05:00+16с118313 0.0 102011
08:00+21ссз017255 0.0 102099
11:00+23ссв226477 0.0 1020272
14:00+27с33495 0.0 1020980
17:00+28ссз12445 0.0 10191000
20:00+23в117136 0.0 101911
9 августа, вт
вт923:00+19всв00787 0.0 101911
02:00+18зсз11807 0.0 101911
05:00+17с018322 0.0 102011
08:00+20ссв12716 0.0 1020126
11:00+25ссз22575 0.0 1019521
14:00+28ссз33487 0.0 10191334
17:00+28сз334527 0.0 10181638
20:00+24всв11656 0.0 101711
10 августа, ср
ср1023:00+21ю1169100 0.0 101812
02:00+19юв117849 0.0 101811
05:00+17ююв118799 0.0 101811
08:00+20юв1178100 0.0 1019111
11:00+24ю1163100 0.0 1018442
14:00+26юз225298 0.0 10181017
17:00+27юз225170 0.0 10171253
20:00+23ююв2269100 0.1 101615
11 августа, чт
чт1123:00+18всв0089100 5.3 101611
02:00+17ююв2293100 2.0 101615
05:00+16зсз1194100 2.1 101511
08:00+18зюз2491100 0.3 1015201
11:00+17юз3696100 1.1 1015294
14:00+17зсз4793100 0.9 1015516
17:00+20сз347096 1.1 10141095
20:00+16зсз368876 2.4 1014168
12 августа, пт
пт1223:00+14сз599493 3.1 1015427
02:00+12зсз5996100 0.1 1015589
05:00+12зсз41194100 0.1 1015502
08:00+13зсз5118997 0.0 1016470
11:00+17зсз6967100 0.0 1015685
14:00+19сз7958100 0.2 10151510
17:00+16зсз2772100 0.4 1014266
20:00+18з41069100 0.1 1013373